User: anonymous   Login
Location: Burland Observatory
(39.4088°N, 105.4217°W)
Time: 06:04:03
(UTC-07:00)
Language:

Explorer 7 - Orbit

View from above orbital plane
View from above orbital plane
View from above satellite
View from above satellite

Ground track
Ground track

The orbit data is extracted from the following two-line orbital elements,

1    22U 59009A   19347.88654388 -.00000046 +00000-0 +19624-4 0  9998
2    22 050.2849 257.3499 0139864 266.0368 092.4581 14.95006278442466
Epoch (UTC): 13 December 2019 21:16:37
Eccentricity: 0.0139864
inclination: 50.2849°
perigee height: 485 km
apogee height: 680 km
right ascension of ascending node: 257.3499°
argument of perigee: 266.0368°
revolutions per day: 14.95006278
mean anomaly at epoch: 92.4581°
orbit number at epoch: 44246

The dashed part of the orbit path shows where the satellite is in the earth's shadow,  

DLR